AVR9829 SKBG-SKRG

Flight info

Callsign AVR9829
Flight time 0h 36m
Altitude 24000
Route EJA2F EJA W26 DIPRA DIPRA3B
Aircraft A320/M-SDE3FGHIRWY/LB1

Departure

Time 2026-04-23 03:06
Airport Palonegro Airport (SKBG)

Arrival

Time 2026-04-23 03:42
Airport Jose Maria Córdova International Airport (SKRG)
Time Latitude Longitude Altitude Speed Heading
2026-04-23 02:54 7.12699 -73.18066 3900 ft 0 kts 13°
2026-04-23 02:56 7.12698 -73.18066 3900 ft 2 kts 13°
2026-04-23 02:56 7.12682 -73.18070 3899 ft 2 kts 13°
2026-04-23 02:57 7.12666 -73.18073 3895 ft 2 kts 13°
2026-04-23 02:57 7.12650 -73.18077 3898 ft 2 kts 13°
2026-04-23 02:57 7.12640 -73.18077 3897 ft 2 kts 308°
2026-04-23 02:57 7.12650 -73.18088 3898 ft 2 kts 311°
2026-04-23 02:58 7.12655 -73.18100 3897 ft 2 kts 285°
2026-04-23 02:58 7.12656 -73.18103 3898 ft 0 kts 285°
2026-04-23 02:59 7.12658 -73.18109 3899 ft 5 kts 284°
2026-04-23 02:59 7.12664 -73.18138 3900 ft 2 kts 282°
2026-04-23 02:59 7.12669 -73.18168 3899 ft 11 kts 278°
2026-04-23 02:59 7.12680 -73.18243 3900 ft 10 kts 278°
2026-04-23 03:00 7.12680 -73.18301 3900 ft 6 kts 260°
2026-04-23 03:00 7.12684 -73.18356 3901 ft 19 kts 275°
2026-04-23 03:00 7.12670 -73.18386 3902 ft 1 kts 171°
2026-04-23 03:00 7.12610 -73.18357 3899 ft 21 kts 154°
2026-04-23 03:01 7.12464 -73.18300 3894 ft 23 kts 157°
2026-04-23 03:01 7.12287 -73.18231 3887 ft 30 kts 157°
2026-04-23 03:01 7.12095 -73.18156 3880 ft 30 kts 159°
2026-04-23 03:01 7.11893 -73.18088 3870 ft 32 kts 163°
2026-04-23 03:02 7.11685 -73.18023 3853 ft 25 kts 165°
2026-04-23 03:02 7.11631 -73.18024 3836 ft 0 kts 194°
2026-04-23 03:02 7.11630 -73.18026 3837 ft 3 kts 210°
2026-04-23 03:03 7.11622 -73.18048 3840 ft 0 kts 256°
2026-04-23 03:03 7.11624 -73.18050 3843 ft 0 kts 282°
2026-04-23 03:03 7.11625 -73.18055 3846 ft 1 kts 294°
2026-04-23 03:03 7.11668 -73.18103 3858 ft 8 kts 334°
2026-04-23 03:04 7.11674 -73.18108 3857 ft 0 kts 337°
2026-04-23 03:05 7.11840 -73.18172 3866 ft 62 kts 340°
2026-04-23 03:05 7.12450 -73.18402 3896 ft 123 kts 340°
2026-04-23 03:06 7.13391 -73.18775 4008 ft 162 kts 333°
2026-04-23 03:06 7.14416 -73.19171 4822 ft 157 kts 332°
2026-04-23 03:06 7.15453 -73.19565 5489 ft 161 kts 331°
2026-04-23 03:06 7.16525 -73.19938 5977 ft 165 kts 333°
2026-04-23 03:07 7.17653 -73.20273 6393 ft 174 kts 336°
2026-04-23 03:07 7.18837 -73.20558 6829 ft 178 kts 337°
2026-04-23 03:07 7.20015 -73.20926 7344 ft 178 kts 331°
2026-04-23 03:07 7.21185 -73.21383 7800 ft 183 kts 329°
2026-04-23 03:08 7.22352 -73.21890 8389 ft 179 kts 328°
2026-04-23 03:08 7.23392 -73.22452 9080 ft 155 kts 307°
2026-04-23 03:08 7.23872 -73.23307 9752 ft 141 kts 279°
2026-04-23 03:08 7.23769 -73.24352 10229 ft 164 kts 248°
2026-04-23 03:09 7.22899 -73.25215 10439 ft 195 kts 217°
2026-04-23 03:09 7.21763 -73.26050 10607 ft 209 kts 237°
2026-04-23 03:09 7.21134 -73.27423 10784 ft 229 kts 253°
2026-04-23 03:09 7.20597 -73.29021 11088 ft 253 kts 253°
2026-04-23 03:10 7.20007 -73.30746 11325 ft 275 kts 253°
2026-04-23 03:10 7.19353 -73.32646 11564 ft 299 kts 252°
2026-04-23 03:10 7.18654 -73.34674 11981 ft 313 kts 252°
2026-04-23 03:10 7.17930 -73.36765 12667 ft 319 kts 252°
2026-04-23 03:11 7.17198 -73.38880 13438 ft 321 kts 252°
2026-04-23 03:11 7.16462 -73.41011 14157 ft 324 kts 252°
2026-04-23 03:11 7.15717 -73.43168 14828 ft 327 kts 252°
2026-04-23 03:11 7.14970 -73.45341 15480 ft 331 kts 252°
2026-04-23 03:12 7.14214 -73.47546 16115 ft 334 kts 252°
2026-04-23 03:12 7.13465 -73.49734 16712 ft 337 kts 252°
2026-04-23 03:12 7.12693 -73.51982 17279 ft 341 kts 252°
2026-04-23 03:12 7.11916 -73.54253 17846 ft 345 kts 252°
2026-04-23 03:13 7.11129 -73.56541 18457 ft 347 kts 252°
2026-04-23 03:13 7.10332 -73.58851 19030 ft 350 kts 252°
2026-04-23 03:13 7.09530 -73.61175 19598 ft 354 kts 252°
2026-04-23 03:13 7.08720 -73.63521 20155 ft 357 kts 252°
2026-04-23 03:14 7.07914 -73.65863 20693 ft 360 kts 252°
2026-04-23 03:14 7.07092 -73.68254 21225 ft 363 kts 252°
2026-04-23 03:14 7.06262 -73.70667 21746 ft 366 kts 252°
2026-04-23 03:14 7.05428 -73.73094 22261 ft 369 kts 252°
2026-04-23 03:15 7.04587 -73.75544 22750 ft 372 kts 252°
2026-04-23 03:15 7.03736 -73.78017 23202 ft 375 kts 252°
2026-04-23 03:15 7.02826 -73.80487 23632 ft 379 kts 247°
2026-04-23 03:15 7.01589 -73.82843 23933 ft 382 kts 242°
2026-04-23 03:16 7.00289 -73.85156 24001 ft 375 kts 243°
2026-04-23 03:16 6.99015 -73.87424 24007 ft 370 kts 243°
2026-04-23 03:16 6.96511 -73.91887 24014 ft 368 kts 243°
2026-04-23 03:17 6.95256 -73.94132 24009 ft 368 kts 243°
2026-04-23 03:17 6.94004 -73.96375 24012 ft 368 kts 243°
2026-04-23 03:17 6.92750 -73.98624 24010 ft 368 kts 243°
2026-04-23 03:17 6.91497 -74.00870 24008 ft 368 kts 243°
2026-04-23 03:18 6.90242 -74.03117 24007 ft 368 kts 243°
2026-04-23 03:18 6.88990 -74.05362 24010 ft 368 kts 243°
2026-04-23 03:18 6.87733 -74.07610 24006 ft 368 kts 243°
2026-04-23 03:18 6.86495 -74.09821 24004 ft 368 kts 243°
2026-04-23 03:19 6.85238 -74.12064 24003 ft 368 kts 243°
2026-04-23 03:19 6.83982 -74.14306 24002 ft 368 kts 243°
2026-04-23 03:19 6.82728 -74.16545 24001 ft 368 kts 243°
2026-04-23 03:19 6.81473 -74.18784 23999 ft 367 kts 243°
2026-04-23 03:20 6.80217 -74.21021 24000 ft 367 kts 243°
2026-04-23 03:20 6.78959 -74.23259 23994 ft 367 kts 243°
2026-04-23 03:20 6.77703 -74.25497 23991 ft 367 kts 243°
2026-04-23 03:20 6.76466 -74.27706 23992 ft 367 kts 243°
2026-04-23 03:21 6.75214 -74.29944 23992 ft 367 kts 243°
2026-04-23 03:21 6.73961 -74.32185 23992 ft 367 kts 243°
2026-04-23 03:21 6.72706 -74.34422 23991 ft 367 kts 243°
2026-04-23 03:21 6.71450 -74.36659 23992 ft 367 kts 243°
2026-04-23 03:22 6.70200 -74.38894 23994 ft 367 kts 243°
2026-04-23 03:22 6.68948 -74.41133 23991 ft 367 kts 243°
2026-04-23 03:22 6.67695 -74.43368 23993 ft 367 kts 243°
2026-04-23 03:22 6.66456 -74.45576 23171 ft 372 kts 240°
2026-04-23 03:23 6.65164 -74.47880 23345 ft 383 kts 240°
2026-04-23 03:23 6.63835 -74.50243 23573 ft 394 kts 240°
2026-04-23 03:23 6.62472 -74.52668 23570 ft 400 kts 240°
2026-04-23 03:23 6.61203 -74.55163 23571 ft 402 kts 248°
2026-04-23 03:24 6.60256 -74.57805 23582 ft 402 kts 250°
2026-04-23 03:24 6.59333 -74.60459 23585 ft 402 kts 250°
2026-04-23 03:24 6.58409 -74.63108 23589 ft 402 kts 250°
2026-04-23 03:24 6.57481 -74.65763 23593 ft 402 kts 250°
2026-04-23 03:25 6.56567 -74.68378 23597 ft 402 kts 250°
2026-04-23 03:25 6.55642 -74.71020 23602 ft 402 kts 250°
2026-04-23 03:25 6.54713 -74.73676 23606 ft 401 kts 250°
2026-04-23 03:25 6.53787 -74.76319 23615 ft 400 kts 250°
2026-04-23 03:26 6.52859 -74.78953 23613 ft 400 kts 250°
2026-04-23 03:26 6.51931 -74.81590 23619 ft 399 kts 250°
2026-04-23 03:26 6.51007 -74.84222 23625 ft 399 kts 250°
2026-04-23 03:26 6.50097 -74.86817 23656 ft 399 kts 250°
2026-04-23 03:27 6.49174 -74.89449 23726 ft 399 kts 250°
2026-04-23 03:27 6.48250 -74.92080 23789 ft 400 kts 250°
2026-04-23 03:27 6.47326 -74.94715 23856 ft 400 kts 250°
2026-04-23 03:27 6.46401 -74.97352 23927 ft 400 kts 250°
2026-04-23 03:28 6.45476 -74.99986 23996 ft 399 kts 250°
2026-04-23 03:28 6.44552 -75.02618 24062 ft 400 kts 250°
2026-04-23 03:28 6.43626 -75.05253 24130 ft 400 kts 250°
2026-04-23 03:28 6.42701 -75.07881 24071 ft 396 kts 250°
2026-04-23 03:29 6.41795 -75.10457 23854 ft 386 kts 250°
2026-04-23 03:29 6.40748 -75.12876 23436 ft 382 kts 239°
2026-04-23 03:29 6.39160 -75.14970 22957 ft 379 kts 225°
2026-04-23 03:29 6.37112 -75.16622 22473 ft 377 kts 212°
2026-04-23 03:30 6.34755 -75.17720 22018 ft 375 kts 197°
2026-04-23 03:30 6.32249 -75.18413 21565 ft 373 kts 195°
2026-04-23 03:30 6.29741 -75.19087 21096 ft 372 kts 195°
2026-04-23 03:30 6.27240 -75.19763 20631 ft 372 kts 195°
2026-04-23 03:31 6.24745 -75.20441 20160 ft 371 kts 195°
2026-04-23 03:31 6.22257 -75.21118 19695 ft 371 kts 195°
2026-04-23 03:31 6.19765 -75.21797 19222 ft 371 kts 195°
2026-04-23 03:31 6.17310 -75.22468 18759 ft 371 kts 195°
2026-04-23 03:32 6.14821 -75.23145 18203 ft 371 kts 195°
2026-04-23 03:32 6.12292 -75.23831 17442 ft 378 kts 195°
2026-04-23 03:32 6.09784 -75.24511 17162 ft 369 kts 195°
2026-04-23 03:32 6.07314 -75.25182 16693 ft 367 kts 195°
2026-04-23 03:33 6.04869 -75.25851 16002 ft 361 kts 195°
2026-04-23 03:33 6.02488 -75.26500 15513 ft 348 kts 195°
2026-04-23 03:33 6.00192 -75.27124 15074 ft 336 kts 195°
2026-04-23 03:33 5.98009 -75.27717 14647 ft 324 kts 195°
2026-04-23 03:34 5.95876 -75.28298 14373 ft 308 kts 196°
2026-04-23 03:34 5.93872 -75.28843 14254 ft 289 kts 196°
2026-04-23 03:34 5.91999 -75.29352 14122 ft 270 kts 196°
2026-04-23 03:34 5.90284 -75.29932 13982 ft 253 kts 211°
2026-04-23 03:35 5.88983 -75.31058 13856 ft 246 kts 236°
2026-04-23 03:35 5.88291 -75.32589 13684 ft 236 kts 259°
2026-04-23 03:35 5.88274 -75.34216 13115 ft 235 kts 280°
2026-04-23 03:35 5.88586 -75.35828 12499 ft 235 kts 280°
2026-04-23 03:36 5.88885 -75.37421 11915 ft 236 kts 280°
2026-04-23 03:36 5.89177 -75.39002 11710 ft 219 kts 280°
2026-04-23 03:36 5.89629 -75.40377 11659 ft 200 kts 301°
2026-04-23 03:36 5.90532 -75.41359 11613 ft 187 kts 325°
2026-04-23 03:37 5.91716 -75.41876 11393 ft 187 kts 349°
2026-04-23 03:37 5.93005 -75.41961 11155 ft 184 kts 357°
2026-04-23 03:37 5.94243 -75.42004 10929 ft 173 kts 356°
2026-04-23 03:37 5.95429 -75.42048 10705 ft 169 kts 356°
2026-04-23 03:38 5.96586 -75.42092 10484 ft 168 kts 356°
2026-04-23 03:38 5.97750 -75.42137 10268 ft 167 kts 357°
2026-04-23 03:38 5.98908 -75.42181 10035 ft 166 kts 357°
2026-04-23 03:38 6.00063 -75.42213 9806 ft 166 kts 358°
2026-04-23 03:39 6.01213 -75.42220 9619 ft 165 kts 359°
2026-04-23 03:39 6.02363 -75.42223 9463 ft 165 kts 359°
2026-04-23 03:39 6.03510 -75.42229 9273 ft 164 kts 359°
2026-04-23 03:39 6.04647 -75.42236 9073 ft 163 kts 359°
2026-04-23 03:40 6.05784 -75.42243 8874 ft 163 kts 359°
2026-04-23 03:40 6.06901 -75.42250 8665 ft 162 kts 359°
2026-04-23 03:40 6.08030 -75.42257 8473 ft 162 kts 359°
2026-04-23 03:40 6.09155 -75.42265 8270 ft 161 kts 359°
2026-04-23 03:41 6.10274 -75.42272 8054 ft 161 kts 359°
2026-04-23 03:41 6.11387 -75.42279 7822 ft 160 kts 359°
2026-04-23 03:41 6.12499 -75.42286 7573 ft 159 kts 359°
2026-04-23 03:41 6.13599 -75.42294 7323 ft 157 kts 359°
2026-04-23 03:42 6.14689 -75.42301 7074 ft 156 kts 359°
2026-04-23 03:42 6.15728 -75.42311 6978 ft 131 kts
2026-04-23 03:42 6.16449 -75.42313 6993 ft 81 kts 359°
2026-04-23 03:42 6.16890 -75.42316 7018 ft 47 kts 358°
2026-04-23 03:43 6.17180 -75.42319 7021 ft 39 kts
2026-04-23 03:43 6.17436 -75.42320 7024 ft 34 kts 359°
2026-04-23 03:43 6.17567 -75.42357 7022 ft 16 kts 284°
2026-04-23 03:43 6.17568 -75.42472 7019 ft 16 kts 258°
2026-04-23 03:44 6.17495 -75.42542 7019 ft 15 kts 215°
2026-04-23 03:44 6.17408 -75.42601 7017 ft 16 kts 213°
2026-04-23 03:44 6.17300 -75.42620 7016 ft 16 kts 180°
2026-04-23 03:44 6.17191 -75.42618 7017 ft 11 kts 178°
2026-04-23 03:45 6.17182 -75.42617 7017 ft 0 kts 178°
2026-04-23 03:45 6.17150 -75.42645 7016 ft 12 kts 248°
2026-04-23 03:45 6.17146 -75.42685 7016 ft 2 kts 270°